Location: Asbacherhof
(48.8543°N, 10.7903°E)
Time: 22:21:15
(UTC+00:00)

Resurs 1-4 Rocket - Pass Details

Date: 26 May 2022
Orbit: 800 x 813 km, 98.7° (Epoch: 29 June)

Event Time Altitude Azimuth Distance (km) Brightness Sun altitude
Rises 01:20:41 0° 12° (NNE) 3,323 6.8 -14.5°
Reaches altitude 10° 01:23:02 10° 10° (N) 2,389 5.7 -14.4°
Maximum altitude 01:28:16 68° 289° (WNW) 865 2.2 -13.9°
Enters shadow 01:31:58 20° 210° (SSW) 1,796 3.3 -13.6°
